Location: Observatory
(52.1446°N, 0.4624°W)
Time: 16:20:14
(UTC+01:00)

ISS - Pass Details

Date: 30 May 2020
Orbit: 417 x 420 km, 51.6° (Epoch: 26 May)

Event Time Altitude Azimuth Distance (km) Brightness Sun altitude
Rises 22:08:23 0° 281° (WNW) 2,367 1.0 -7.1°
Reaches altitude 10° 22:10:46 10° 266° (W) 1,501 -0.4 -7.3°
Maximum altitude 22:13:26 22° 214° (SW) 978 -2.1 -7.5°
Drops below altitude 10° 22:16:05 10° 162° (SSE) 1,495 -1.6 -7.8°
Enters shadow 22:16:11 10° 160° (SSE) 1,530 -1.5 -7.8°
